Preview of NWS' New Version of Forecast
This preview is not operational and should not be used for support decisions.

Regional Weather Roundup (RWR)

Issued by Gray - Portland, ME (GYX)

                            
000
ASUS41 KGYX 250310
RWRGYX
WEATHER ROUNDUP FOR MAINE AND NEW HAMPSHIRE
NATIONAL WEATHER SERVICE GRAY ME
1100 PM EDT MON JUN 24 2019

MEZ002-005-006-010-012-015-018-020-021-024-026-027-029-250400-
MAINE
  
CITY           SKY/WX    TMP DP  RH WIND       PRES   REMARKS
PORTLAND       FAIR      58  51  78 CALM      29.90R                  
SANFORD        FAIR      51  49  92 CALM      29.90S                  
BAR HARBOR     FAIR      51  47  86 CALM      29.92R                  
WISCASSET      FAIR      52  48  86 CALM      29.93R                  
ROCKLAND       FAIR      49  46  90 CALM      29.92R                  
FRYEBURG       FAIR      57  50  77 CALM      29.90R                  
LEWISTONAUBURN FAIR      54  50  86 CALM      29.91R                  
AUGUSTA        FAIR      58  49  72 CALM      29.92R                  
WATERVILLE     FAIR      55  49  80 CALM      29.90R                  
BANGOR         FAIR      55  47  74 CALM      29.90S                  
GREENVILLE       N/A     58  40  51 NE5       29.91R                  
MILLINOCKET    FAIR      54  46  74 CALM      29.92R                  
HOULTON        FAIR      46  44  93 CALM      29.89S                  
PRESQUE ISLE   FAIR      49  47  93 CALM      29.91S                  
FRENCHVILLE    FAIR      62  34  35 N3        29.90S                  
CARIBOU        FAIR      54  40  59 CALM      29.89S                  
$$

NHZ002-005-008-009-011-012-014-250400-
NEW HAMPSHIRE
  
CITY           SKY/WX    TMP DP  RH WIND       PRES   REMARKS
PORTSMOUTH     CLOUDY    60  55  84 E5        29.87R                  
ROCHESTER      FAIR      57  50  77 CALM      29.89R                  
NASHUA         FAIR      64  56  75 CALM      29.87S                  
MANCHESTER     MOCLDY    68  49  50 CALM      29.86R                  
CONCORD        FAIR      64  48  56 E6        29.88R                  
LACONIA        FAIR      62  55  77 CALM      29.89R                  
PLYMOUTH       FAIR      56  53  90 CALM      29.89R                  
BERLIN         FAIR      50  46  86 CALM      29.91R                  
WHITEFIELD     FAIR      51  47  86 CALM      29.89S                  
JAFFREY        FAIR      63  58  83 CALM      29.89S                  
KEENE          FAIR      61  59  93 CALM      29.86R                  
LEBANON        FAIR      60  53  77 CALM      29.86S                  
MT WASHINGTON  MOCLDY    48  32  53 W16         N/A                   
$$

VTZ005-007-008-250400-
VERMONT
  
CITY           SKY/WX    TMP DP  RH WIND       PRES   REMARKS
ST JOHNSBURY     N/A     58  51  78 MISG      29.87R                  
MONTPELIER     FAIR      57  50  77 CALM      29.92R                  
BURLINGTON     MOCLDY    65  54  67 E5        29.83S                  
$$

MAZ007-012-024-CTZ003-RIZ002-NYZ038-NYZ072-250400-
SOUTHERN NEW ENGLAND AND NY
  
CITY           SKY/WX    TMP DP  RH WIND       PRES   REMARKS
BOSTON         MOCLDY    65  58  78 E6        29.86S                  
WORCESTER      FAIR      68  55  63 CALM      29.89R                  
NANTUCKET      FAIR      59  56  89 SE9       29.90R                  
PROVIDENCE     FAIR      71  57  61 W5        29.86S                  
HARTFORD       MOCLDY    73  58  59 S7        29.84S                  
ALBANY         MOCLDY    74  58  57 SE3       29.83S                  
NEW YORK CITY  MOCLDY    76  65  68 S7        29.83R                  
$$

ANZ081-ANZ082-ANZ150-NHZ014-MEZ023>029-250400-
COASTAL MARINE OBSERVATIONS
  
STATION/POSITION TIME  TEMP    WIND        PRES    WAVE
                       AIR SEA DIR/SP/G            HT/PER
                 (UTC) (F)     (DEG/KT/KT) (MB)    (FT/S)
ISLE OF SHOALS   0200   61     150/  7/  8 1011.1R
JEFFREYS LEDGE   0208      58                N/A     2/ 3
CASHES LEDGE BUO 0250   57 54  190/ 10/ 12 1012.8R   1/ 9
GEORGES BANK BUO 0250   54 53   50/  4/  6 1014.5R   3/ 6
$$

.............KEY..............
   WCI - WIND CHILL
   TC  - TEMPERATURE IN CELSIUS
   VSB - VISIBILITY IN MILES
   HX  - HEAT INDEX
   FAIR- INDICATES FEW OR NO CLOUDS BELOW 12,000 FT, WITH NO 
         SIGNIFICANT WEATHER AND/OR OBSTRUCTIONS TO VISIBILITY.